CZ-4C DEB, 42672

Orbit data source: Space-Track

CZ-4C DEB, 42672 is space debris in SSO originally from a launch on Thu, 26 Nov 2015 UTC launched from the Taiyaun Space Center, China (TSC). Debris objects in space refer to the collection of defunct objects orbiting the Earth. Examples of debris include non-operational satellites, rocket bodies, and fragments generated from explosions, collisions, or faulty payload assembly.

Loading next visibility...
Identifier
42672, 2015-069E
Orbit
SSO
Country
Flag of CNCN / PRC
Related business
Manufacturer
Unknown
Mission
Spacecraft
Bus & Motor
Unknown
Mass
Unknown
Launch date (UTC)
2015-11-26 (10 years ago)
Launch vehicle
Unknown
Launch site
Taiyaun Space Center, China (TSC)
Object type
Payload
Rocket body
Debris
Shape & HBR
Unknown
Radar Cross Section
Small (<0.1 m²)

Expand to show TLE details & history
Last TLE update: 10 hours ago

TLE from 10 hours ago
0 CZ-4C DEB
1 42672U 15069E   25259.16852317  .00012781  00000-0  11363-2 0  9993
2 42672  98.2624 227.9926 0092302 136.0591 224.8015 14.92983712518059
Epoch: 2025-09-16T04:02Z
TLE epoch observation values (Epoch: 2025-09-16T04:02:40.401Z)
Latitude
-0.00002°
Longitude
171.96157°
Altitude
637.596 km
Speed
7.514 km/s
True Right ascension
15h 11m 58s
True Declination
0° 00' 00"
Sunlit
Object was in daylight at epoch
Visualization orbit readout
Latitude
Unknown
Longitude
Unknown
Altitude
Unknown
Speed
Unknown
Apparent Right ascension
Unknown
Apparent Declination
Unknown
Sunlit
N/A
Visualization observer readout
Local Sidereal Time
06:33:02
Azimuth
Unknown
Elevation
Unknown
Doppler factor
Unknown
Orbital elements
Apogee altitude
649.955 km
Perigee altitude
521.401 km
Semi-major axis
6,963.815 km
Eccentricity
0.00923
Inclination
98.2624°
RAAN
227.9926°
Arg. of periapsis
136.0591°
True anomaly
224.06226°
Mean anomaly
224.8015°
Eccentric anomaly
224.43128°
Mean motion
3.73484 °/min
Orbital period
96.39 mins
BSTAR
0.0011363
Loading maneuver chart data...
Computing Atmospheric mass density...
Loading historical data...
Loading historical data...
Loading historical data...
Loading historical data...
Loading historical data...
Loading historical data...
Loading historical data...
Other satellites on launch #69 in the year 2015 (2015-11-26 UTC)

Documentation

Showing up to 5 results
|